Regional Weather Roundup
Issued by NWS

Home | Current Version | Previous Version | Text Only | Print | Product List | Glossary Off
Versions: 1 2 3 4 5 6 7 8 9 10 11 12 13 14 15 16 17 18 19 20 21 22 23 24 25 26 27 28 29 30 31 32 33 34 35 36 37 38 39 40 41 42 43 44 45 46 47 48 49 50

000
ASUS45 KBOU 311410
RWRCO

WEATHER ROUNDUP FOR COLORADO
NATIONAL WEATHER SERVICE PUEBLO CO
800 AM MDT FRI JUL 31 2015

NOTE: "FAIR" INDICATES FEW OR NO CLOUDS BELOW 12000 FEET WITH NO
SIGNIFICANT WEATHER AND/OR OBSTRUCTIONS TO VISIBILITY.

COZ001>005-013-030-031-311500-
...NORTHWEST COLORADO...

CITY           SKY/WX    TMP DP  RH WIND       PRES   REMARKS
CRAIG          SUNNY     52  38  58 CALM      30.40R
HAYDEN         SUNNY     57  36  44 E9        30.41S
MEEKER         SUNNY     55  35  47 CALM      30.41R
MOUNT WERNER   NOT AVBL
STEAMBOAT SPGS NOT AVBL
WALDEN         FAIR      50  34  53 CALM      30.55R
$$

COZ006>008-011-311500-
...WEST CENTRAL VALLEYS...

CITY           SKY/WX    TMP DP  RH WIND       PRES   REMARKS
GRAND JUNCTION SUNNY     67  32  27 S3        30.29R
MONTROSE       MOSUNNY   68  42  38 S6        30.38R
EAGLE          MOSUNNY   54  36  50 CALM      30.48R
RIFLE          SUNNY     62  35  36 CALM      30.36R
DELTA          NOT AVBL
NUCLA          FAIR      66  45  45 E8        30.42S
$$

COZ017>023-064>068-311500-
...SOUTHWEST COLORADO...

CITY           SKY/WX    TMP DP  RH WIND       PRES   REMARKS
DURANGO        CLOUDY    61  58  90 CALM      30.44R
CORTEZ         CLOUDY    63  59  87 SW3       30.39R
PAGOSA SPRINGS NOT AVBL
TELLURIDE      PTSUNNY   57  44  61 CALM      30.61R
WOLF CREEK PAS NOT AVBL
$$

COZ009-010-012-014-032>034-037-058>063-311500-
...CENTRAL COLORADO...

CITY           SKY/WX    TMP DP  RH WIND       PRES   REMARKS
ASPEN          SUNNY     61  45  55 N3        30.49R
BUENA VISTA    PTSUNNY   59  47  64 NW9       30.54S
COPPER MTN     NOT AVBL
BERTHOUD PASS  FAIR      46  36  66 SE9       30.87R
COTTONWOOD PAS MOSUNNY   59  43  55 CALM      30.66S
GUNNISON       PTSUNNY   57  45  62 N5        30.54R
KREMMLING      SUNNY     54  36  50 CALM      30.53R
LEADVILLE      SUNNY     52  44  74 CALM      30.66S
MONARCH PASS   CLOUDY    50  39  66 E6        30.91R
SALIDA         NOT AVBL
NIWOT RIDGE    NOT AVBL
SUNLIGHT       SUNNY     57  43  58 SE3       30.74R
WILKERSON PASS SUNNY     55  39  54 NE3       30.80R
$$

COZ069>075-311500-
...SAN LUIS VALLEY/SANGRE DE CRISTO MOUNTAINS...

CITY           SKY/WX    TMP DP  RH WIND       PRES   REMARKS
ALAMOSA        SUNNY     60  52  74 CALM      30.50R
LA VETA PASS   CLOUDY    54  46  76 MISG      30.68R
SAGUACHE       CLOUDY    61  50  67 NW8       30.54R
$$

COZ035-036-038>040-311500-
...NORTHERN COLORADO FRONT RANGE...

CITY           SKY/WX    TMP DP  RH WIND       PRES   REMARKS
DENVER INTL AP MOSUNNY   68  57  68 W5        30.36R
DMNS CITY PARK NOT AVBL
AURORA         MOSUNNY   67  57  69 NW2       30.39R
FRONT RANGE AP MOSUNNY   66  57  72 MISG      30.38R
ERIE MUNI ARPT NOT AVBL
BOULDER MUN AP NOT AVBL
CENTENNIAL     MOSUNNY   68  50  52 W3        30.39R
BROOMFIELD     MOSUNNY   68  57  68 CALM      30.38R
LOVELAND       SUNNY     66  57  72 NE3       30.35R
LONGMONT       NOT AVBL
$$

COZ041-046-047-076>085-087-088-311500-
...PIKES PEAK/PALMER DIVIDE AND SOUTHERN FOOTHILLS...

CITY           SKY/WX    TMP DP  RH WIND       PRES   REMARKS
COLO. SPRINGS  MOSUNNY   67  59  75 N6        30.42S
A. F. ACADEMY  SUNNY     63  54  72 N5        30.44S
ELLICOTT       FAIR     N/A N/A N/A CALM      30.41R
FALCON         NOT AVBL
FORT CARSON    SUNNY     65  55  71 N7        30.39S
LIMON          SUNNY     65  62  90 CALM      30.38R
MONUMENT HILL  SUNNY     64  54  68 S5        30.47S
TRINIDAD       SUNNY     68  54  60 W9        30.38R
$$

COZ042>045-048>051-090-091-311500-
...NORTHEAST COLORADO...

CITY           SKY/WX    TMP DP  RH WIND       PRES   REMARKS
GREELEY ARPT   SUNNY     63  57  82 CALM      30.34R
AKRON          SUNNY     69  57  65 S8        30.33S
BURLINGTON     MOSUNNY   68  64  87 S8        30.32R
WRAY           FAIR      68  60  74 CALM      30.28S
STERLING       NOT AVBL
HOLYOKE        NOT AVBL
FORT MORGAN    FAIR      65  56  72 SE7       30.32S
$$

COZ086-089-092>099-311500-
...SOUTHEAST COLORADO...

CITY           SKY/WX    TMP DP  RH WIND       PRES   REMARKS
PUEBLO         SUNNY     69  59  70 S6        30.34R
LA JUNTA       SUNNY     71  63  75 E5        30.31R
LAMAR          PTSUNNY   72  64  76 S6        30.28R
SPRINGFIELD      N/A     64  63  96 S13       30.33R
$$



USA.gov is the U.S. government's official web portal to all federal, state and local government web resources and services.